Theta_e
311 310 309 308 308 308 308 308 309 310 311 312 313 314 315 315 316 322 336 349 334 326 325 327 328 325 323 323 319 322 317 319 316 311 309 308 308 309 307 308 307 304 304 302 303 298 294 310 310 303 307 312 311 310
311 310 309 308 308 307 307 308 309 310 310 311 313 314 315 315 315 317 330 339 339 328 324 330 330 330 328 329 326 323 321 320 320 315 312 312 309 310 309 300 311 303 308 304 305 301 311 311 309 313 312 309 309 308
311 310 309 308 307 307 307 308 309 309 310 311 312 314 315 315 314 317 332 335 331 325 323 323 323 329 330 328 331 320 321 323 321 330 320 316 311 312 305 304 307 310 314 307 307 306 306 308 310 309 309 307 307 308
310 310 309 308 307 307 307 308 308 309 310 311 312 313 314 314 314 316 329 333 333 326 318 320 330 327 330 330 329 331 329 333 331 324 318 314 310 317 308 307 306 308 311 307 305 308 309 307 308 308 307 307 306 307
310 309 308 307 307 307 307 308 308 309 310 311 312 313 314 313 314 322 329 332 333 326 317 319 327 328 329 329 329 332 332 335 321 316 314 310 314 312 311 309 304 309 307 304 300 308 306 306 308 308 306 305 306 306
310 309 308 307 307 307 307 308 308 309 310 311 313 313 312 313 315 328 320 329 329 332 320 314 325 324 327 328 327 326 325 325 320 316 313 317 321 317 307 303 308 311 313 313 307 310 308 309 309 310 308 309 309 308
309 308 308 307 307 307 307 308 309 309 310 311 311 312 312 311 328 322 319 323 317 335 320 314 314 322 326 326 324 323 330 321 319 316 314 314 314 313 308 302 309 312 311 311 311 310 307 307 306 310 309 309 310 309
309 308 308 307 307 307 307 308 308 309 310 311 311 312 314 311 313 320 324 317 318 329 322 314 312 316 325 318 316 322 317 319 318 315 316 313 315 314 304 309 311 311 308 310 309 311 309 309 309 308 309 309 307 306
308 308 307 307 307 307 307 308 308 309 309 310 312 312 322 322 319 320 317 318 338 325 317 316 310 308 322 317 320 318 320 312 319 313 313 315 311 304 308 309 308 306 309 309 310 309 308 307 307 307 307 306 305 305
308 307 307 307 307 307 307 307 308 309 310 312 320 321 316 320 317 322 324 320 319 321 322 316 318 311 318 315 315 315 318 312 308 313 316 311 305 313 313 311 311 311 311 311 306 305 306 305 306 307 306 306 306 307
308 307 307 307 308 308 307 308 308 309 316 325 321 318 323 318 325 321 314 313 314 312 317 317 317 313 321 315 313 317 313 313 307 310 311 306 304 310 312 312 313 311 310 309 309 309 310 309 307 306 306 307 307 307
307 306 306 307 307 308 307 307 307 322 323 316 316 324 328 321 315 310 310 311 311 308 315 314 315 316 317 321 315 313 310 311 304 315 308 302 308 313 313 311 311 310 310 309 310 309 309 309 308 307 307 306 306 307
306 306 306 306 307 308 307 308 309 310 312 331 323 317 314 313 300 304 302 306 307 313 314 315 312 316 315 316 313 311 305 307 314 307 305 307 313 313 313 312 309 310 310 310 309 310 309 308 308 307 305 306 306 306
306 306 306 307 307 307 307 308 309 315 324 318 311 296 308 306 308 309 310 311 315 316 315 316 313 313 315 312 311 304 309 309 303 302 302 308 313 312 312 310 309 309 310 309 309 309 307 306 306 306 307 306 305 304
305 306 306 309 307 307 307 308 309 326 320 312 311 299 306 311 312 313 314 313 316 317 315 313 313 312 310 307 309 307 304 301 302 304 308 313 314 313 310 310 310 310 310 309 309 307 306 306 305 305 306 308 306 305
306 307 313 307 306 306 307 315 326 325 319 313 312 308 312 310 309 311 313 312 315 316 317 315 309 306 306 307 304 302 300 299 306 310 313 315 315 312 312 311 311 311 310 309 308 308 307 306 305 305 306 306 305 304
304 315 307 306 305 306 310 323 322 314 313 309 310 314 310 310 310 311 312 313 318 314 310 310 303 302 309 305 302 307 305 309 312 313 314 317 314 313 313 312 312 310 309 308 308 308 308 308 307 305 304 305 305 304
315 315 309 307 307 317 324 322 317 313 307 312 309 308 310 311 311 312 313 316 316 313 312 308 311 305 303 300 304 310 311 313 314 315 315 315 315 314 313 312 311 309 308 308 308 309 308 306 305 304 308 307 304 305
309 309 306 305 308 317 315 316 319 309 310 313 313 312 311 310 313 314 315 316 317 317 313 311 305 305 306 310 310 312 312 313 311 312 314 315 315 314 312 312 310 309 309 309 309 307 306 307 306 305 304 303 301 302
304 306 306 307 310 318 310 314 321 312 310 311 313 311 311 311 313 314 314 314 314 312 308 306 307 310 311 312 314 314 314 315 312 308 310 312 314 314 312 311 308 310 310 310 308 301 306 304 305 305 304 302 301 300
309 312 310 317 320 317 314 314 313 313 313 311 312 311 310 312 312 312 312 314 311 309 308 311 311 313 316 314 315 315 313 313 312 310 310 309 313 312 311 310 311 309 307 306 305 304 302 303 305 305 304 303 302 302
313 308 318 317 313 312 313 316 313 315 313 310 309 311 309 309 310 311 312 310 309 311 312 312 313 312 311 311 312 315 315 313 314 310 301 304 306 307 309 310 309 307 307 307 306 305 304 305 305 305 304 303 301 303
308 311 315 311 307 303 302 316 309 310 305 306 309 306 307 308 311 312 307 311 312 314 314 313 313 314 313 313 314 313 313 312 311 312 312 311 312 311 310 310 310 308 307 307 308 306 305 300 303 304 304 303 303 302
302 310 306 305 306 300 310 307 310 308 309 305 305 302 305 310 312 307 304 309 312 313 313 314 312 311 312 313 311 312 314 315 314 313 313 311 310 311 311 310 310 310 310 310 309 308 306 304 299 304 304 303 302 301
302 301 302 293 307 303 301 302 303 304 301 304 302 303 307 310 304 304 303 308 311 312 313 313 313 312 311 311 313 313 319 314 312 311 312 311 310 311 310 311 310 310 311 309 308 307 306 304 304 304 303 303 301 301
293 303 301 303 304 302 303 299 300 301 303 301 303 308 309 305 301 300 306 310 311 312 313 313 312 312 311 312 311 312 313 315 313 310 311 311 310 309 308 308 307 308 312 311 309 307 305 303 303 303 302 301 292 299
296 301 307 311 309 307 305 307 307 305 301 300 305 304 304 298 299 305 310 313 311 314 315 314 313 311 311 312 314 316 316 316 316 313 314 313 312 312 311 309 308 311 313 311 309 307 305 303 302 302 302 303 303 302
305 305 302 306 306 308 303 303 301 300 303 308 306 300 299 300 302 309 312 316 315 315 314 314 315 313 313 313 313 313 314 315 317 316 315 315 314 313 314 313 313 297 311 312 311 309 308 306 303 302 302 302 302 303
304 309 307 302 303 304 304 303 303 307 309 308 304 303 305 309 312 312 313 314 315 314 312 311 311 313 312 313 313 312 312 313 311 308 308 307 309 310 313 313 313 312 313 312 292 301 308 306 305 304 303 302 302 302
302 309 304 303 301 300 305 309 307 311 311 310 310 309 309 310 312 314 314 313 311 311 311 311 311 310 309 309 309 310 312 313 313 312 308 308 310 312 313 313 312 312 312 312 311 310 288 297 298 303 302 303 303 303
307 306 303 303 302 306 308 310 311 310 310 308 309 307 306 308 311 314 313 315 312 312 311 309 310 310 309 308 308 308 307 311 312 313 313 312 313 314 315 314 314 313 311 311 310 309 308 306 306 305 304 304 304 301
304 302 301 299 302 307 308 306 306 305 305 305 305 308 307 306 304 309 312 312 310 309 303 306 309 309 311 311 311 311 295 312 311 312 313 313 313 314 314 313 313 313 312 311 310 309 308 308 306 305 304 304 304 305
302 303 303 302 301 301 304 303 302 302 303 303 303 304 304 304 302 307 313 313 311 310 310 311 311 313 314 312 312 311 301 313 308 292 296 295 294 300 310 312 313 312 310 311 310 308 307 306 306 305 305 305 305 305
Wind_Speed
11 12 14 16 17 18 19 20 21 22 22 22 21 22 21 18 15 6 2 5 5 7 12 16 17 13 8 9 8 5 6 4 5 7 5 5 7 6 5 7 6 9 7 6 8 4 5 17 13 8 6 12 11 8
11 12 14 15 17 18 19 19 20 21 21 21 21 21 23 21 18 11 3 6 8 8 9 11 13 11 9 10 6 2 2 2 6 6 3 1 3 4 8 2 10 7 10 6 8 5 5 11 9 6 12 13 17 16
11 13 14 15 16 17 19 19 20 21 21 21 21 20 21 22 22 14 7 7 9 10 8 9 10 11 8 8 6 4 6 1 1 3 5 6 8 8 6 9 9 11 12 5 4 8 7 8 8 12 13 14 14 15
11 13 14 15 16 17 19 19 20 20 20 20 20 19 19 20 19 14 5 6 4 5 6 7 6 11 10 10 10 8 5 2 1 4 3 5 8 10 12 11 11 7 6 6 7 6 5 11 12 13 14 15 15 15
11 13 15 16 16 18 19 19 20 20 20 19 19 17 17 19 17 10 4 6 6 7 9 8 9 10 8 7 10 8 2 5 6 7 8 9 10 9 10 8 10 10 8 6 5 8 8 8 8 10 11 11 12 12
11 13 15 16 17 18 19 20 20 20 20 19 18 17 16 15 12 5 2 6 9 6 8 5 5 7 8 8 8 8 6 7 7 6 5 4 5 2 4 7 7 8 7 8 5 4 5 6 8 10 13 15 16 14
12 13 15 16 17 18 20 21 21 20 20 18 17 14 14 18 3 4 5 3 8 6 5 6 6 4 7 6 6 7 7 6 7 7 8 6 8 7 10 9 6 10 5 5 4 5 6 10 8 8 12 9 11 14
12 14 15 16 17 18 21 22 21 21 19 18 16 11 11 10 1 3 4 5 8 6 3 3 5 5 5 6 5 5 6 6 5 4 5 7 4 5 5 6 4 6 2 2 4 6 7 9 11 11 4 9 8 11
12 14 16 16 17 18 20 22 21 21 19 17 15 12 2 2 4 4 9 12 4 4 2 3 6 8 6 4 2 6 4 4 2 6 4 3 6 6 9 6 6 2 3 6 8 8 10 10 12 13 14 15 16 15
12 14 16 17 18 18 21 23 22 21 19 14 4 5 4 3 3 7 2 2 0 3 3 3 6 5 4 6 6 3 2 5 3 2 4 5 5 7 6 6 3 3 4 8 8 8 8 10 12 14 16 15 16 15
13 15 16 17 17 17 21 23 25 21 9 4 3 4 3 2 4 3 1 1 2 2 3 5 4 6 3 4 2 2 2 1 4 4 2 4 5 6 7 6 4 1 5 4 4 7 9 12 14 15 15 16 16 17
14 15 16 17 17 17 20 19 21 9 5 4 4 6 4 3 4 3 1 3 2 4 2 1 5 4 4 4 0 1 2 3 3 5 3 3 5 9 6 7 1 3 3 5 8 11 13 14 14 13 14 14 15 15
14 15 16 16 15 17 19 16 11 10 13 5 4 2 5 1 4 4 5 3 4 2 4 2 4 2 2 3 2 2 1 2 3 3 3 4 10 8 6 5 2 3 3 7 10 11 12 12 13 13 13 14 15 14
15 16 15 14 14 17 19 17 12 6 4 3 3 5 3 2 3 4 7 6 4 1 2 3 5 4 2 1 3 3 4 3 4 8 4 7 9 8 5 3 4 3 5 8 10 11 12 12 12 13 13 13 13 14
16 14 13 10 15 18 17 17 12 4 4 4 2 2 2 2 4 3 1 5 1 3 3 2 1 4 3 1 2 4 2 4 1 6 8 7 8 6 3 2 4 5 6 7 9 9 10 12 12 12 13 11 12 12
17 14 2 12 16 20 15 14 4 2 2 2 3 1 0 2 3 3 1 4 3 1 2 4 1 3 1 2 3 1 4 3 7 6 7 8 6 4 3 1 3 4 5 6 7 8 10 11 11 12 11 11 11 13
12 3 10 14 19 21 10 3 1 3 2 2 2 2 3 5 6 4 5 5 2 6 5 2 2 3 2 2 2 3 6 8 7 7 6 7 7 5 3 2 2 3 4 6 7 8 9 8 10 11 11 10 11 12
1 8 13 15 13 9 2 3 2 0 1 2 1 4 3 4 2 2 2 2 5 2 2 4 2 5 1 1 2 6 5 6 8 7 6 5 4 3 2 3 4 4 4 5 7 7 7 8 9 8 8 8 9 10
10 11 15 15 6 5 3 2 4 1 2 2 2 1 3 3 2 2 2 2 2 3 3 2 2 2 4 4 4 5 4 3 5 4 6 2 1 1 3 4 5 5 4 6 5 5 5 6 7 6 7 8 8 9
13 12 13 14 1 5 0 2 3 1 3 3 0 1 2 4 2 1 2 1 2 2 0 2 4 6 6 5 4 4 5 4 3 4 7 8 6 5 6 4 4 4 7 6 5 1 5 6 7 6 7 7 7 9
4 6 10 5 2 4 4 3 1 5 1 2 2 3 2 3 1 1 1 2 3 2 1 3 6 6 6 5 4 2 2 2 2 4 7 6 3 5 3 4 7 5 4 5 5 5 3 6 5 6 7 7 7 9
4 7 4 1 2 2 1 1 4 2 3 2 3 3 2 2 1 1 3 3 1 2 3 4 6 4 4 3 3 3 5 1 0 1 3 2 5 7 6 5 3 5 5 4 5 5 6 5 6 6 6 7 8 7
9 3 5 1 0 2 4 3 3 2 3 3 1 1 2 2 2 1 4 2 3 3 1 5 5 2 5 5 2 2 3 4 5 6 4 6 6 6 5 5 5 5 5 4 4 5 6 5 1 5 6 7 7 7
3 4 4 2 3 2 2 2 1 2 1 3 1 1 1 0 2 4 4 1 6 5 5 6 4 4 4 4 6 8 9 9 8 6 5 7 7 6 6 6 6 4 4 4 3 4 6 7 5 6 7 8 8 7
3 4 2 4 4 4 4 4 3 3 2 1 1 2 2 2 3 3 3 2 4 4 4 6 5 7 7 7 7 7 7 6 7 5 4 6 9 7 7 6 7 7 6 5 5 4 5 7 7 8 8 8 8 9
2 2 1 1 2 3 1 2 3 2 1 1 3 1 1 2 4 4 1 0 1 2 2 4 6 6 7 8 8 7 6 5 2 3 4 6 8 9 9 8 6 6 5 5 2 5 8 8 8 10 9 10 4 5
3 1 2 2 3 2 4 0 2 2 2 2 2 1 2 3 4 1 3 2 3 2 3 4 6 8 9 10 10 9 7 3 5 4 4 5 8 9 9 9 9 7 7 7 4 6 8 9 10 10 10 9 9 9
3 4 4 1 2 1 4 4 2 3 2 1 2 4 3 3 2 4 4 5 3 5 6 6 7 7 8 9 9 10 10 4 6 5 8 8 7 7 9 8 9 5 5 7 8 7 8 9 10 10 11 11 10 10
4 1 3 6 4 3 3 3 3 2 2 4 6 7 8 5 5 5 5 6 6 6 6 8 8 8 9 10 9 10 9 5 14 14 11 9 8 8 8 7 5 8 8 8 9 9 11 9 9 9 10 9 10 10
2 1 5 5 5 5 3 2 4 6 5 4 6 8 8 8 8 7 6 6 7 7 8 8 8 10 10 10 9 9 8 6 9 12 8 9 11 7 7 8 10 10 9 7 7 9 4 5 6 6 9 10 10 11
3 3 5 7 8 7 6 6 5 6 7 9 8 8 10 10 9 8 9 8 7 9 9 9 9 7 7 8 9 9 9 8 12 13 9 7 9 8 8 7 7 9 10 10 9 10 11 9 11 12 13 14 15 12
4 6 6 10 9 7 7 7 8 9 9 9 10 10 10 10 12 8 7 7 7 8 6 6 8 8 9 9 8 9 9 10 10 10 14 9 9 9 8 8 8 9 11 12 10 12 13 14 13 14 14 17 17 17
8 6 7 9 9 8 7 7 8 9 8 10 11 11 11 11 13 8 4 3 5 7 8 8 10 9 9 9 7 7 9 9 12 7 7 5 6 6 7 9 10 11 15 14 13 14 16 18 15 17 18 19 19 19
Wind_Direction
352 348 342 338 339 339 341 340 341 341 340 338 338 335 335 333 338 334 51 295 43 87 47 42 39 41 2 17 41 110 208 171 230 286 342 80 38 55 79 77 357 20 326 12 29 34 31 2 30 46 313 337 6 342
348 345 340 336 338 338 339 340 339 341 338 337 339 336 336 337 339 332 66 4 62 59 94 70 51 41 39 41 347 149 42 29 3 318 43 42 78 62 65 83 38 44 45 45 38 85 50 36 56 10 358 354 358 357
345 342 338 334 334 338 338 337 338 341 338 337 337 338 337 338 341 352 58 91 108 125 93 51 36 45 47 42 40 321 90 59 120 301 327 52 82 35 75 45 80 56 46 73 106 63 67 55 37 19 3 8 355 353
343 338 334 332 336 337 337 336 339 339 335 335 334 334 335 336 335 334 40 360 276 115 93 77 79 64 64 64 70 83 110 124 195 265 71 74 89 68 77 82 61 47 26 82 68 53 207 32 33 17 8 9 7 359
341 334 331 332 335 336 332 337 337 335 333 332 329 331 336 333 330 310 53 40 15 345 108 106 75 55 61 76 89 82 74 258 105 85 88 95 100 105 107 89 52 44 22 27 55 28 3 14 12 11 7 3 6 353
338 330 331 330 333 333 332 338 335 332 330 327 323 330 333 329 324 286 111 50 9 13 127 110 98 82 96 100 107 95 79 81 85 81 76 80 66 8 114 96 78 85 76 46 46 14 14 317 356 15 5 8 1 351
332 328 330 328 332 328 332 338 333 329 326 322 316 328 329 332 331 0 14 358 337 302 106 139 138 104 136 125 109 105 82 77 85 92 102 97 97 57 59 94 115 80 56 353 20 336 2 358 27 359 351 2 339 352
328 328 329 327 329 327 332 333 329 325 321 314 309 321 321 324 353 71 41 8 340 282 194 103 91 174 249 137 133 142 99 97 97 120 155 125 88 92 91 108 113 64 36 275 353 306 8 358 347 359 5 300 349 335
325 329 326 325 330 329 329 329 326 323 316 307 307 304 270 225 75 43 333 307 278 301 321 123 182 127 186 151 163 161 151 110 212 102 91 65 65 44 126 149 82 29 344 329 328 6 19 347 338 347 343 350 344 347
324 329 323 326 331 327 328 328 327 321 309 301 275 227 86 45 340 320 251 247 352 315 274 121 105 156 153 186 195 154 261 132 119 69 84 78 70 120 117 88 154 235 289 295 359 356 347 324 329 342 356 352 342 341
324 321 320 328 325 324 330 332 327 328 297 241 330 45 96 91 266 238 117 281 145 136 318 46 4 134 28 335 136 10 288 135 114 137 105 126 135 177 155 200 221 32 3 331 346 309 333 343 358 354 348 345 344 346
320 316 322 324 321 323 330 332 333 336 24 1 310 264 267 277 21 305 130 184 322 83 184 183 54 31 87 298 23 169 280 151 93 102 169 93 117 161 154 214 201 50 303 333 325 356 358 359 354 348 347 344 345 344
314 317 321 315 315 321 326 323 322 290 285 222 234 9 32 149 19 243 171 172 141 164 155 161 163 195 162 282 13 282 311 89 156 102 85 92 138 135 206 207 135 227 339 346 360 357 350 356 353 352 347 348 341 344
314 315 312 311 313 321 324 316 321 323 263 288 108 354 280 152 39 2 13 40 36 313 197 256 116 250 29 169 336 234 41 286 277 159 101 132 154 166 208 121 256 358 12 360 355 351 353 351 346 349 355 343 351 344
310 310 315 309 326 327 319 309 315 263 331 15 350 296 66 23 38 22 345 113 77 293 235 256 129 244 143 146 306 31 220 254 299 67 110 124 152 175 148 109 308 15 6 354 353 345 345 346 348 353 343 352 347 347
317 303 336 328 332 322 313 302 226 268 350 33 299 120 231 198 149 182 1 103 355 316 264 293 354 10 160 310 218 150 328 355 84 94 111 136 149 139 141 157 16 358 350 340 344 343 346 347 351 342 337 352 347 337
308 10 345 342 330 311 289 295 8 24 2 287 85 340 342 10 25 25 352 18 309 284 277 339 320 95 352 267 70 325 42 82 132 126 118 124 143 153 183 230 198 306 332 347 337 349 336 340 354 325 348 344 349 334
298 356 353 336 338 288 142 320 342 317 244 207 179 73 26 1 72 52 71 358 293 331 285 33 344 229 269 293 64 93 85 73 56 98 107 120 139 201 198 256 297 318 337 343 332 330 323 346 332 333 348 357 339 334
308 307 308 311 326 293 347 60 321 318 27 37 86 343 74 111 125 201 94 87 347 310 280 256 259 317 67 38 67 95 107 145 138 136 106 131 166 227 255 299 296 271 354 297 289 305 319 353 310 344 351 354 334 338
283 272 283 291 180 275 359 73 266 263 217 55 319 240 15 46 66 84 71 309 275 255 202 264 24 40 68 54 19 52 80 93 150 185 194 169 177 190 226 249 297 348 261 281 304 269 357 329 347 2 3 332 323 339
240 2 328 291 238 334 340 298 41 352 99 228 95 255 103 210 203 54 73 266 245 310 150 83 88 68 41 31 54 59 106 61 328 354 7 44 150 177 228 240 226 254 300 320 332 338 324 342 347 4 333 332 343 316
5 328 284 269 302 347 272 309 328 93 264 104 204 254 190 191 171 66 304 241 235 67 18 99 101 147 135 134 147 324 79 132 190 171 207 206 255 253 237 239 274 295 294 316 319 339 332 339 357 322 328 328 305 332
291 203 237 318 32 57 252 255 242 285 200 170 236 204 190 207 58 321 257 334 74 95 90 97 119 202 111 125 220 239 233 263 276 268 235 232 237 241 265 264 244 258 278 301 342 335 335 319 261 309 309 305 332 333
103 289 313 286 174 257 227 210 258 226 251 218 231 233 218 339 38 246 272 271 102 116 122 122 205 181 189 205 236 229 216 204 230 232 242 260 262 256 250 270 282 277 286 283 293 299 299 312 306 310 323 325 322 337
304 313 168 290 254 225 218 168 205 224 223 245 268 236 193 167 264 276 275 306 138 159 168 171 231 246 256 263 253 251 201 229 255 263 292 294 299 282 267 243 256 258 250 252 256 275 303 301 310 307 310 312 324 314
13 172 183 311 183 261 194 202 215 232 261 227 235 338 289 285 275 261 241 128 51 4 289 248 247 259 266 272 277 275 278 251 223 291 315 313 303 293 290 286 275 282 288 288 315 304 301 298 298 307 305 305 259 261
268 101 168 242 302 248 248 331 352 280 244 251 287 285 256 247 258 309 85 77 306 34 345 323 321 316 313 315 315 318 317 290 247 268 311 313 296 303 312 311 304 300 305 306 310 297 295 297 295 297 299 301 302 300
328 305 307 110 297 325 308 309 277 267 270 3 290 251 245 295 315 8 38 52 339 320 312 308 307 300 295 295 292 297 303 318 121 238 259 264 249 248 250 257 263 179 259 275 274 285 293 295 299 304 303 301 304 309
258 220 301 275 259 257 252 268 281 295 356 318 298 293 301 311 347 345 331 311 298 306 305 298 297 301 292 284 279 273 269 291 327 292 256 253 271 279 282 285 260 195 212 232 205 219 230 243 260 278 295 298 290 285
249 341 286 288 272 268 281 355 321 333 328 304 299 299 295 294 299 307 303 298 293 304 310 300 297 289 287 292 299 303 307 273 205 234 246 264 284 291 308 307 301 298 293 251 252 232 189 236 212 232 243 247 246 248
311 289 272 276 281 284 300 310 322 310 293 286 281 284 288 289 286 279 274 273 278 269 264 270 277 288 315 315 308 303 301 310 320 311 286 288 287 270 256 261 272 274 275 272 271 272 275 251 254 268 279 284 286 283
270 271 282 285 285 299 313 299 283 275 276 274 273 270 272 269 271 277 278 280 280 289 287 283 288 298 318 314 310 323 319 322 319 305 301 287 287 299 296 287 269 259 266 274 278 272 270 271 273 276 278 280 281 282
282 277 287 287 292 289 283 283 284 282 285 289 291 288 285 286 290 295 316 333 313 299 290 279 271 275 292 311 292 301 286 282 286 267 219 237 252 263 279 283 285 290 294 291 285 286 285 280 277 276 276 274 274 275